Tracking 35334 objects as of 12-Sep-2026
HD Live streaming from Space Station
objects crossing your sky now

CZ-3C R/B

Track CZ-3C R/B now!
10-day predictions


NORAD ID: 43875
Int'l Code: 2018-110B
Launch date: December 24, 2018
Source: People's Republic of China (PRC)
Launch site: Xichang Space Center, China (XSC)

Note: This is a ROCKET BODY
Your satellite tracking list
Your tracking list is empty




NASA's NSSDC Master Catalog

Two Line Element Set (TLE):
1 43875U 18110B   26255.16324920  .00031744 -12016-6  13297-2 0  9995
2 43875  27.9184 150.4491 6561263  98.7994 335.1522  3.28408219 75425
Source of the keplerian elements: AFSPC